Regional Weather Roundup
Issued by NWS

Home | Current Version | Previous Version | Text Only | Print | Product List | Glossary Off
Versions: 1 2 3 4 5 6 7 8 9 10 11 12 13 14 15 16 17 18 19 20 21 22 23 24 25 26 27 28 29 30 31 32 33 34 35 36 37 38 39 40 41 42 43 44 45 46 47 48 49 50

000
ASUS43 KDTX 011510
RWRMI
MICHIGAN HOURLY REGIONAL WEATHER ROUNDUP
NATIONAL WEATHER SERVICE DETROIT/PONTIAC MI
1000 AM EST SUN FEB 01 2015

NOTE: "FAIR" INDICATES FEW OR NO CLOUDS BELOW 12,000 FEET WITH NO
SIGNIFICANT WEATHER AND/OR OBSTRUCTION TO VISIBILITY.

MIZ047>049-052>055-059>063-066>070-074>076-081>083-011600-
SOUTHEAST LOWER MICHIGAN

CITY           SKY/WX    TMP DP  RH WIND       PRES   REMARKS
ADRIAN         SNOW      24  21  88 E21       30.08F VSB 1/2
ALMA           LGT SNOW  15  12  89 NE18      30.17F WCI  -2
ANN ARBOR      LGT SNOW  23  19  85 E12       30.10F VSB 3/4
BAD AXE        LGT SNOW  15  11  85 NE13      30.23F
DETROIT CITY   LGT SNOW  24  19  81 NE14      30.15F VSB 3/4
DETROIT        LGT SNOW  24  21  88 NE10      30.13F VSB 3/4
FLINT          LGT SNOW  21  15  78 NE15      30.15F
GROSSE ILE     LGT SNOW  25  21  86 NE14G20   30.11F VSB 3/4
HILLSDALE      SNOW      26  24  94 E17       30.01F VSB 1/2
HOWELL         LGT SNOW  20  18  91 NE9       30.09F VSB 3/4

CITY           SKY/WX    TMP DP  RH WIND       PRES   REMARKS
JACKSON        SNOW      22  19  89 E12       30.07F VSB 1/4
LAMBERTVILLE   SNOW      28  23  80 E5        30.10F VSB 1/2
LANSING        SNOW      19  15  84 NE13      30.12F VSB 1/2
LAPEER         NOT AVBL
MASON          SNOW      19  16  88 E12G18    30.10F VSB 1/2
MONROE         LGT SNOW  25  21  86 NE12G18   30.09F
MT. CLEMENS    LGT SNOW  22  18  86 NE13      30.13F FOG
PONTIAC        LGT SNOW  20  16  84 NE15      30.11F VSB 3/4
PORT HOPE        N/A     16   9  74 NE18      30.24F WCI   0
PORT HURON     LGT SNOW  19  18  93 NE14      30.19F
TRI CITIES     SNOW      18  13  80 NE22G28   30.20F VSB 1/2
YPSILANTI      LGT SNOW  26  19  74 E16       30.12F VSB 3/4
$$
MIZ043>046-050>051-056>058-064>065-071>073-077>080-011600-
SOUTHWEST LOWER MICHIGAN

CITY           SKY/WX    TMP DP  RH WIND       PRES   REMARKS
BATTLE CREEK   SNOW      22  17  81 E12       30.04F VSB 1/2
BENTON HARBOR  SNOW      25  24  96 E14G24    29.97F VSB 1/4
BIG RAPIDS     LGT SNOW  14  11  89 E15G21    30.14F VSB 1   WCI  -1
COLDWATER      LGT SNOW  27  25  92 E15G23    30.00F VSB 3/4
HOLLAND        SNOW      20  15  81 E14G21    30.07F VSB 1/2
GRAND RAPIDS   LGT SNOW  17  13  84 E15       30.09F VSB 3/4
KALAMAZOO      SNOW      23  19  85 NE12G17   30.03F VSB 1/4
MARSHALL       LGT SNOW  21  19  90 NE6       30.04F VSB 3/4
MUSKEGON       SNOW      18  13  80 NE20G25   30.11F VSB 1/2
$$
MIZ016>042-011600-
NORTHERN LOWER MICHIGAN

CITY           SKY/WX    TMP DP  RH WIND       PRES   REMARKS
ALPENA         LGT SNOW   6   2  83 NE9       30.32F FOG
BEAVER ISLAND  PTSUNNY   -2  -7  77 CALM      30.33S
BELLAIRE       CLOUDY     9   1  71 NE10      30.29S WCI  -5
CADILLAC       CLOUDY     9   4  79 E14       30.15S WCI  -7
CHARLEVOIX     CLOUDY     5   0  79 E10       30.33S WCI -10
FRANKFORT      CLOUDY    12   6  76 E8        30.23S
GAYLORD        CLOUDY     4   0  83 E10       30.22S FOG     WCI -11
GRAYLING       CLOUDY     8   1  74 E13       30.23S WCI  -8
HARBOR SPRINGS CLOUDY     4  -2  75 NE10G20   30.29F WCI -11
HOUGHTON LAKE  CLOUDY     8   2  76 NE15      30.21F WCI  -9
MANISTEE       CLOUDY    14   3  62 NE13      30.19F WCI   0
OSCODA         LGT SNOW  13   7  79 NE17      30.27F WCI  -4
PELLSTON       CLOUDY     3  -3  76 NE9       30.33F HAZE
TRAVERSE CITY  CLOUDY    11   3  70 NE13      30.24F WCI  -4
$$
MIZ007>008-015-011600-
EASTERN UPPER MICHIGAN

CITY           SKY/WX    TMP DP  RH WIND       PRES   REMARKS
KINROSS        PTSUNNY   -9 -17  70 E10       30.37S WCI -28
MACKINAC ISLAN CLOUDY    -3 -10  72 NE14      30.35S WCI -23
NEWBERRY       PTSUNNY   -8 -13  78 NE7       30.35S
S. S. MARIE    PTSUNNY  -10 -20  61 E6        30.39F
$$
MIZ004>006-011>014-085-011600-
CENTRAL UPPER MICHIGAN

CITY           SKY/WX    TMP DP  RH WIND       PRES   REMARKS
MANISTIQUE     CLOUDY    -1  -8  69 MISG      30.35R
ESCANABA       CLOUDY     7  -2  66 NE13      30.33R WCI  -9
MENOMINEE      CLOUDY     9   3  78 NE22      30.28R WCI -11
SAWYER-GWINN   LGT SNOW   9   3  78 NE9       30.27S
$$
MIZ001>003-009>011-084-011600-
WESTERN UPPER MICHIGAN

CITY           SKY/WX    TMP DP  RH WIND       PRES   REMARKS
IRON MOUNTAIN  CLOUDY     9   2  73 NE9       30.25S
HOUGHTON       CLOUDY     6   0  76 E9        30.33S HAZE
COPPER HARBOR    N/A     10   2  69 NE15      30.38S WCI  -7
IRONWOOD       CLOUDY     7   1  78 E7        30.28R
$$

ABBREVIATIONS USED IN REMARKS
   TC - TEMPERATURE IN CELSIUS
  WCI - WIND CHILL INDEX
   HX - HEAT INDEX
  VSB - VISIBILITY



USA.gov is the U.S. government's official web portal to all federal, state and local government web resources and services.